Погода в Лазаревском

Россия / Республика Калмыкия     46°04′18″N   41°54′23″E
темп.,
°C
ветер,
м/с
пор.,
м/с
влажн.,
%
обл.,
%
осадки,
мм/ч
давл.,
гПа
погр.,
м
29 июня, ср
ср2900:00+21в2255100 0.0 101315
03:00+18с226098 0.0 101312
06:00+19ссв22557 0.0 101373
09:00+24всв34605 0.0 1013689
12:00+29всв455027 0.0 10131877
15:00+27св574998 0.1 1012630
18:00+28всв464570 0.0 1013696
21:00+23всв4104954 0.0 1014191
30 июня, чт
чт3000:00+19всв410460 0.0 1014196
03:00+17всв410450 0.0 1015191
06:00+17всв410505 0.0 1015276
09:00+24в57325 0.0 1015739
12:00+27в44274 0.0 10141759
15:00+29всв43250 0.0 10122220
18:00+27св45290 0.0 1012393
21:00+21всв453423 0.0 101251
1 июля, пт
пт100:00+18всв465036 0.0 101397
03:00+18всв4751100 0.0 1013121
06:00+19в3646100 0.0 1013133
09:00+23в343751 0.0 1013390
12:00+28ссв143033 0.0 10122497
15:00+27с243397 0.0 10112126
18:00+26зюз233783 0.0 1011628
21:00+22св353999 0.0 1012119
2 июля, сб
сб200:00+20ссв51044100 0.0 1013326
03:00+17св48655 0.0 1014240
06:00+16ссв59680 0.0 1016476
09:00+19с56360 0.0 10171137
12:00+23с56310 0.0 10161887
15:00+25ссз46263 0.0 10152466
18:00+25ссз46294 0.0 10152222
21:00+19ссз35380 0.0 101654
3 июля, вс
вс300:00+16с23440 0.0 101719
03:00+15ссз22500 0.0 101711
06:00+16зсз235326 0.0 101798
09:00+22сз34400 0.0 10171144
12:00+26сз34330 0.0 10162185
15:00+28зсз352824 0.0 10152691
18:00+28з453233 0.0 10141751
21:00+23юз49459 0.0 1015216